Falls City, NE

9:57 AM CST on February 20, 2018 (GMT -0600)
Brenner

Weather History for KFNB - September, 2012

Change the Weather History Date:

Monday, September 24, 2012

  Actual Average Record
Temperature  
Mean Temperature 60 °F -  
Max Temperature 77 °F 73 °F 90 °F (2017)
Min Temperature 44 °F 48 °F 28 °F (1989)
Degree Days  
Heating Degree Days 6    
Growing Degree Days 10 (Base 50)    
Moisture  
Dew Point 47 °F    
Average Humidity 61    
Maximum Humidity 79    
Minimum Humidity 44    
Precipitation  
Precipitation 0.00 in - - ()
Sea Level Pressure  
Sea Level Pressure 29.99 in    
Wind  
Wind Speed 4 mph (SE)    
Max Wind Speed 10 mph    
Max Gust Speed 20 mph    
Visibility 10 miles    
Events      
Averages and records for this station are not official NWS values.
T = Trace of Precipitation, MM = Missing Value Source: NWS Daily Summary

Daily Weather History Graph

Daily Weather History Graph

Search for Another Location

Airport or City:

Trip Planner

Search our weather history database for the weather conditions in past years. The results will help you decide how hot, cold, wet, or windy it might be!

Date:

Astronomy

Sep. 24, 2012 Rise Set
Actual Time 7:12 AM CDT 7:15 PM CDT
Civil Twilight 6:45 AM CDT 7:42 PM CDT
Nautical Twilight 6:13 AM CDT 8:13 PM CDT
Astronomical Twilight 5:41 AM CDT 8:45 PM CDT
Moon 4:02 PM CDT (9/24) 1:29 AM CDT (9/24)
Length of Visible Light 12h 56m
Length of Day
12h 02m
Waxing Gibbous, 71% of the Moon is Illuminated
Sep 24
Waxing Gibbous
Sep 29
Full
Oct 8
Last Quarter
Oct 15
New
Oct 21
First Quarter

Hourly Weather History & Observations

Time (CDT) Temp. Windchill Dew Point Humidity Pressure Visibility Wind Dir Wind Speed Gust Speed Precip Events Conditions
12:53 AM 48.9 °F - 37.9 °F 66% 30.20 in 10.0 mi SE 3.5 mph - N/A   Clear
1:53 AM 48.0 °F - 37.9 °F 68% 30.19 in 10.0 mi Calm Calm - N/A   Clear
2:53 AM 46.9 °F - 37.9 °F 71% 30.18 in 10.0 mi Calm Calm - N/A   Clear
3:53 AM 44.1 °F 42.5 °F 37.9 °F 79% 30.15 in 10.0 mi East 3.5 mph - N/A   Clear
4:53 AM 46.0 °F 43.9 °F 37.9 °F 73% 30.14 in 10.0 mi SE 4.6 mph - N/A   Clear
5:53 AM 46.9 °F - 37.9 °F 71% 30.13 in 10.0 mi Calm Calm - N/A   Clear
6:53 AM 45.0 °F - 37.9 °F 76% 30.12 in 10.0 mi Calm Calm - N/A   Clear
7:53 AM 46.0 °F - 37.9 °F 73% 30.12 in 10.0 mi Calm Calm - N/A   Clear
8:53 AM 51.1 °F - 41.0 °F 68% 30.09 in 10.0 mi SE 5.8 mph - N/A   Clear
9:53 AM 60.1 °F - 43.0 °F 53% 30.06 in 10.0 mi SE 8.1 mph - N/A   Clear
10:53 AM 66.9 °F - 44.1 °F 44% 30.02 in 10.0 mi SE 10.4 mph 19.6 mph N/A   Clear
11:53 AM 70.0 °F - 46.9 °F 44% 30.00 in 10.0 mi SSE 6.9 mph - N/A   Clear
12:53 PM 73.0 °F - 50.0 °F 44% 29.96 in 10.0 mi SE 6.9 mph - N/A   Clear
1:53 PM 75.2 °F - 51.8 °F 44% 29.93 in 10.0 mi SSE 8.1 mph - N/A   Clear
2:53 PM 75.9 °F - 53.1 °F 45% 29.90 in 10.0 mi SSE 6.9 mph - N/A   Clear
3:53 PM 73.9 °F - 54.0 °F 50% 29.88 in 10.0 mi SSW 6.9 mph - N/A   Clear
4:53 PM 75.0 °F - 54.0 °F 48% 29.87 in 10.0 mi Variable 4.6 mph - N/A   Clear
5:53 PM 73.9 °F - 54.0 °F 50% 29.87 in 10.0 mi South 3.5 mph - N/A   Clear
6:53 PM 70.0 °F - 54.0 °F 57% 29.86 in 10.0 mi East 4.6 mph - N/A   Clear
7:53 PM 66.9 °F - 54.0 °F 63% 29.85 in 10.0 mi ESE 4.6 mph - N/A   Clear
8:53 PM 64.9 °F - 54.0 °F 68% 29.85 in 10.0 mi East 5.8 mph - N/A   Clear
9:53 PM 63.0 °F - 55.0 °F 75% 29.82 in 10.0 mi East 4.6 mph - N/A   Clear
10:53 PM 64.0 °F - 54.0 °F 70% 29.81 in 10.0 mi ENE 3.5 mph - N/A   Partly Cloudy
11:53 PM 64.0 °F - 55.0 °F 73% 29.80 in 10.0 mi NNE 3.5 mph - N/A   Clear